SCP
0 0 0 0 0 0 0 0 0 0 0 0 0 0 0 0 0 0 0 0 0 0 0 0 0 0 0 0 0 0 0 0 0 0 0 0 0 0 0 0 0 0 0
0 0 0 0 0 0 0 0 0 0 0 0 0 0 0 0 0 0 0 0 0 0 0 0 0 0 0 0 0 0 0 0 0 0 0 0 0 0 0 0 0 0 0
0 0 0 0 0 0 0 0 0 0 0 0 0 0 0 0 0 0 0 0 0 0 0 0 0 0 0 0 0 0 0 0 0 0 0 0 0 0 0 0 0 0 0
0 0 0 0 0 0 0 0 0 0 0 0 0 0 0 0 0 0 0 0 0 0 0 0 0 0 0 0 0 0 0 0 0 0 0 0 0 0 0 0 0 0 0
0 0 0 0 0 0 0 0 0 0 0 0 0 0 0 0 0 0 0 0 0 0 0 0 0 0 0 0 0 0 0 0 0 0 0 0 0 0 0 0 0 0 0
0 0 0 0 0 0 0 0 0 0 0 0 0 0 0 0 0 0 0 0 0 0 0 0 0 0 0 0 0 0 0 0 0 0 0 0 0 0 0 0 0 0 0
0 0 0 0 0 0 0 0 0 0 0 0 0 0 0 0 0 0 0 0 0 0 0 0 0 0 0 0 0 0 0 0 0 0 0 0 0 0 0 0 0 0 0
0 0 0 0 0 0 0 0 0 0 0 0 0 0 0 0 0 0 0 0 0 0 0 0 0 0 0 0 0 0 0 0 0 0 0 0 0 0 0 0 0 0 0
0 0 0 0 0 0 0 0 0 0 0 0 0 0 0 0 0 0 0 0 0 0 0 0 0 0 0 0 0 0 0 0 0 0 0 0 0 0 0 0 0 0 0
0 0 0 0 0 0 0 0 0 0 0 0 0 0 0 0 0 0 0 0 0 0 0 0 0 0 0 0 0 0 0 0 0 0 0 0 0 0 0 0 0 0 0
0 0 0 0 0 0 0 0 0 0 0 0 0 0 0 0 0 0 0 0 0 0 0 0 0 0 0 0 0 0 0 0 0 0 0 0 0 0 0 0 0 0 0
0 0 0 0 0 0 0 0 0 0 0 0 0 0 0 0 0 0 0 0 0 0 0 0 0 0 0 0 0 0 0 0 0 0 0 0 0 0 0 0 0 0 0
0 0 0 0 0 0 0 0 0 0 0 0 0 0 0 0 0 0 0 0 0 0 0 0 0 0 0 0 0 0 0 0 0 0 0 0 0 0 0 0 0 0 0
0 0 0 0 0 0 0 0 0 0 0 0 0 0 0 -0 -0 -0 -0 0 0 0 0 0 0 0 0 0 0 0 0 0 0 0 0 0 0 0 0 0 0 0 0
0 0 0 0 0 0 0 0 0 0 0 -0 -0 -0 -0 -0 -0 -0 -0 0 0 0 0 0 0 0 0 0 0 0 0 0 0 0 0 0 0 0 0 0 0 0 0
0 0 0 0 0 0 0 0 0 0 -0 -0 0 0 0 0 0 0 0 0 0 0 0 0 0 0 0 0 0 0 0 0 0 0 0 0 0 0 0 0 0 0 0
0 0 0 0 0 0 0 0 0 0 0 0 0 0 0 0 0 0 0 0 0 0 0 0 0 0 0 0 0 0 0 0 0 0 0 0 0 0 0 0 0 0 0
0 0 0 0 0 0 0 0 0 0 0 0 0 0 0 0 0 0 0 0 0 0 0 0 0 0 0 0 0 0 0 0 0 0 0 0 0 0 0 0 0 0 0
0 0 0 0 0 0 0 0 0 0 0 0 0 0 0 0 0 0 0 0 0 0 0 0 0 0 0 0 0 0 0 0 0 0 0 0 0 0 0 0 0 0 0
0 0 0 0 0 0 0 0 0 0 0 0 0 0 0 0 0 0 0 0 0 0 0 0 0 0 0 0 0 0 0 0 0 0 0 0 0 0 0 0 0 0 0
0 0 0 0 0 0 0 0 0 0 0 0 0 0 0 0 0 0 0 0 0 0 0 0 0 0 0 0 0 0 0 0 0 0 0 0 0 0 0 0 0 0 0
0 0 0 0 0 0 0 0 0 0 0 0 0 0 0 0 0 0 0 0 0 0 0 0 0 0 0 0 0 0 0 0 0 0 0 0 0 0 0 0 0 0 0
0 0 0 0 0 0 0 0 0 0 0 0 0 0 0 0 0 0 0 0 0 0 0 0 0 0 0 0 0 0 0 0 0 0 0 0 0 0 0 0 0 0 0
0 0 0 0 0 0 0 0 0 0 0 0 0 0 0 0 0 0 0 0 0 0 0 0 0 0 0 0 0 0 0 0 0 0 0 0 0 0 0 0 0 0 0
0 0 0 0 0 0 0 0 0 0 0 0 0 0 0 0 0 0 0 0 0 0 0 0 0 0 0 0 0 0 0 0 0 0 0 0 0 0 0 0 0 0 0
0 0 0 0 0 0 0 0 0 0 0 0 0 0 0 0 0 0 0 0 0 0 0 0 0 0 0 0 0 0 0 0 0 0 0 0 0 0 0 0 0 0 0
Wind_Speed
13 14 14 12 12 12 13 13 12 10 6 3 2 1 0 0 0 1 2 4 5 6 5 4 5 5 6 6 7 6 7 5 5 5 2 1 1 2 3 3 3 3 2
13 14 13 12 13 13 13 13 13 12 9 5 3 2 2 2 1 2 2 2 3 4 4 5 4 5 5 6 7 6 6 4 6 6 4 2 2 4 4 3 4 4 3
13 11 12 12 12 13 13 12 14 14 12 10 5 4 4 4 3 2 1 1 2 2 3 4 4 5 6 6 7 8 10 6 6 5 7 7 7 3 3 5 4 4 4
10 10 10 11 11 11 10 11 12 13 13 11 9 7 4 3 3 1 1 2 2 1 2 3 4 5 5 6 7 8 7 7 8 5 4 4 6 6 3 3 4 5 5
9 9 9 9 9 9 9 9 11 13 13 12 11 8 6 5 4 4 3 2 1 2 2 3 3 4 5 6 6 7 8 6 6 6 4 3 2 3 6 4 4 4 5
8 7 7 6 7 8 8 9 11 12 12 12 11 11 9 8 7 6 4 2 1 2 3 4 4 4 4 6 7 7 9 8 7 6 5 6 6 6 5 5 4 5 5
6 6 6 6 6 8 8 9 11 11 11 11 10 11 10 9 8 7 6 5 2 2 4 4 4 5 5 5 6 6 7 9 9 7 7 6 6 5 5 5 5 4 3
6 5 5 5 5 7 7 8 9 9 10 10 9 9 9 7 6 7 6 6 5 4 4 4 5 6 6 6 5 5 6 7 9 9 8 6 7 5 5 6 7 5 3
5 5 5 5 5 6 7 8 8 8 8 8 8 8 8 8 7 7 7 6 6 7 8 7 5 5 6 6 6 5 6 6 7 9 9 7 6 6 6 5 6 9 8
4 4 4 4 4 5 5 6 7 7 7 7 7 6 6 7 7 6 7 7 8 8 8 8 7 6 5 6 6 6 6 7 7 6 8 9 6 6 6 6 5 6 8
3 3 3 3 4 4 4 4 4 4 5 5 5 5 5 6 6 6 7 7 7 8 8 8 8 7 7 6 6 7 7 8 8 8 9 10 9 7 6 6 6 6 6
2 2 2 2 3 3 2 2 2 2 2 3 4 4 4 5 5 6 7 7 8 8 8 8 8 8 7 7 6 7 8 8 9 9 10 11 8 11 8 7 8 7 7
2 1 1 2 2 2 2 2 1 0 1 2 4 4 4 4 5 5 6 6 7 8 8 8 8 8 8 8 7 8 8 9 10 10 11 11 10 12 9 9 9 8 7
3 2 1 1 1 2 3 3 3 1 1 2 4 4 4 5 5 5 6 6 7 7 8 8 8 8 9 9 8 8 9 9 10 10 11 11 12 13 11 10 10 8 9
3 3 2 1 2 3 3 3 4 4 3 3 4 5 5 5 6 6 6 6 7 8 8 8 9 9 8 8 9 9 9 10 11 11 12 12 14 16 14 11 10 10 10
3 2 2 3 5 5 5 5 5 5 4 4 6 6 7 7 7 7 7 7 8 8 8 9 9 10 9 16 21 16 10 10 12 13 13 13 14 17 22 24 20 19 16
3 3 3 4 4 4 4 5 5 4 4 5 7 8 8 9 9 8 8 9 9 9 11 11 11 12 14 23 24 22 14 12 13 14 13 12 11 14 13 18 24 24 29
3 4 4 4 4 3 3 3 3 3 5 7 8 8 9 10 10 9 10 10 9 11 12 13 13 15 18 26 27 26 17 14 15 15 16 16 15 14 15 13 15 17 19
4 4 4 4 3 2 2 3 3 4 6 7 8 8 8 9 10 11 12 11 10 12 13 15 15 16 20 28 30 29 13 13 16 16 16 17 17 23 26 19 17 19 18
5 4 3 2 2 4 4 5 5 6 7 7 8 8 8 9 11 13 14 12 12 15 17 18 16 16 19 28 34 33 14 14 16 15 15 19 24 26 28 20 18 20 18
3 1 2 3 3 5 6 6 7 7 7 9 10 11 10 11 13 14 14 14 16 18 18 20 20 19 21 28 36 36 19 15 15 14 13 14 25 29 30 27 19 23 18
3 4 4 4 4 5 6 8 9 8 9 10 11 11 11 11 11 13 14 14 15 18 18 19 20 17 18 23 28 34 32 28 18 16 13 15 26 28 29 24 25 30 24
3 3 3 5 4 4 4 8 9 10 10 10 11 12 12 10 10 12 14 13 13 14 15 15 17 16 14 17 29 32 34 35 23 15 23 26 29 28 23 27 29 22 15
2 3 4 5 5 4 4 5 9 9 9 11 12 13 12 12 11 10 11 12 12 13 15 15 16 16 15 14 14 14 16 22 21 17 16 24 29 26 22 16 18 15 13
2 2 3 6 7 6 6 6 7 8 10 12 13 13 12 13 12 12 11 14 14 17 19 16 16 17 16 18 27 22 16 14 15 16 12 10 10 11 11 12 12 12 13
2 3 4 6 7 7 8 7 7 7 10 13 13 12 12 12 13 13 14 21 25 31 35 34 32 23 29 36 36 36 36 36 35 26 15 13 11 11 11 11 11 11 12
Wind_Direction
57 46 37 26 22 21 20 19 17 12 20 40 60 77 10 216 109 105 128 152 160 172 172 166 172 167 173 181 174 163 158 146 137 106 92 32 163 200 192 176 157 169 162
51 41 34 27 24 22 21 23 18 14 14 21 45 67 53 48 78 87 83 101 140 169 176 176 177 174 176 187 187 172 160 155 164 140 131 169 274 260 205 192 186 182 174
53 40 32 26 23 23 22 25 20 18 14 15 28 44 42 32 31 44 70 96 127 172 188 192 186 183 185 199 200 190 178 170 191 186 156 161 197 204 219 207 193 185 183
60 48 37 30 26 20 18 27 26 23 18 17 25 34 36 30 12 19 90 127 150 195 227 220 212 197 195 208 212 206 205 171 182 219 220 171 150 152 180 231 211 196 195
64 55 44 35 27 21 21 24 31 29 22 20 23 25 25 19 9 14 28 49 144 212 251 260 246 228 209 212 218 212 215 208 192 192 177 178 188 156 145 184 208 213 210
71 63 55 42 29 24 26 27 32 30 22 23 24 25 20 14 12 5 353 339 271 222 231 252 262 259 241 221 221 217 216 223 220 211 195 170 172 185 166 158 175 201 212
77 65 54 46 36 29 29 32 33 29 20 20 23 22 16 14 16 6 353 346 329 276 232 224 237 253 256 246 231 225 221 221 228 222 220 215 206 175 168 147 151 165 185
87 78 65 53 46 40 34 35 36 29 21 17 16 19 16 13 11 5 0 354 346 332 314 253 231 239 252 257 247 238 230 226 230 238 235 226 222 209 191 164 148 147 179
90 84 73 57 46 46 44 40 37 29 21 14 10 16 12 9 9 6 3 358 350 344 342 329 290 254 247 252 256 249 240 234 232 236 242 243 233 224 215 192 168 162 178
95 85 74 65 52 47 49 50 47 31 17 11 7 12 7 3 0 3 3 356 348 346 341 337 325 303 271 253 252 255 247 242 239 235 240 244 242 237 225 214 204 188 184
106 94 84 76 65 51 48 52 55 42 16 3 352 356 1 358 356 359 356 347 343 341 340 333 327 318 302 279 261 254 252 248 246 242 241 242 237 238 231 222 215 206 187
129 115 103 89 77 56 39 51 60 67 13 345 336 339 350 353 351 349 343 338 336 334 331 328 324 318 310 295 275 263 255 250 248 245 245 246 238 236 226 219 219 215 206
166 146 110 76 61 33 6 16 13 74 336 325 321 324 333 335 331 330 327 327 326 323 322 322 320 315 309 299 284 268 259 251 248 244 245 245 238 239 228 221 220 216 214
193 208 182 59 10 349 338 334 330 318 297 308 308 308 309 309 308 307 307 308 308 307 307 306 303 301 298 293 286 277 268 261 255 248 246 244 240 240 229 225 222 213 212
226 234 224 239 265 274 283 293 300 303 301 303 302 297 298 296 292 287 285 287 290 290 289 291 291 289 287 283 285 280 271 267 264 257 251 248 246 242 234 229 220 211 215
272 262 253 254 249 246 249 258 268 274 285 295 293 294 294 290 284 280 280 284 285 284 284 281 279 278 277 284 287 285 274 269 266 264 258 252 249 250 248 241 229 216 216
299 285 270 266 264 253 248 252 256 265 273 277 281 285 285 285 283 281 282 283 285 285 284 280 275 273 273 281 283 281 276 268 266 264 262 257 248 241 244 248 245 234 227
295 290 279 277 272 272 278 284 284 275 268 268 269 269 270 273 276 276 276 279 282 283 284 285 281 279 276 279 280 279 274 266 261 259 257 257 254 243 239 238 240 241 237
270 266 262 268 289 332 0 350 314 293 281 276 275 277 281 285 286 284 284 285 284 283 281 281 278 276 278 279 280 279 270 263 261 257 254 252 253 251 245 239 238 241 243
261 262 276 322 26 31 19 346 317 307 297 300 309 316 317 311 304 300 298 297 291 287 286 283 280 278 278 279 281 279 271 263 260 257 252 248 250 251 248 240 236 238 237
261 345 34 43 40 29 9 331 315 309 318 329 325 322 321 317 309 304 301 299 295 291 286 284 281 278 276 278 279 277 269 260 259 256 252 247 251 252 250 243 236 238 233
61 51 26 4 12 19 356 319 311 321 330 326 318 313 308 303 300 295 294 292 290 288 285 283 281 277 276 277 277 276 272 267 258 253 250 247 253 254 253 249 240 238 235
71 50 18 335 341 357 344 314 317 325 322 315 308 303 299 294 291 289 291 290 286 284 285 285 285 285 284 285 288 289 287 282 273 261 254 252 254 255 256 254 246 237 226
73 38 354 321 315 328 327 311 315 318 312 306 305 303 301 297 291 286 287 287 285 284 283 284 284 285 284 285 286 286 289 287 285 283 274 266 261 259 250 244 244 230 219
51 13 329 307 306 317 314 310 310 310 306 304 304 304 300 296 294 289 282 284 275 274 281 277 274 278 278 273 276 274 273 276 274 279 277 267 254 247 244 239 229 219 212
358 319 302 298 303 309 305 306 304 300 302 306 306 304 302 299 296 295 292 288 289 290 290 288 287 285 284 288 286 283 280 279 276 276 267 260 252 247 243 237 223 212 209